Regional Weather Roundup
Issued by NWS

Home | Current Version | Previous Version | Graphics & Text | Print | Product List | Glossary On
Versions: 1 2 3 4 5 6 7 8 9 10 11 12 13 14 15 16 17 18 19 20 21 22 23 24 25 26 27
000
ASUS45 KBOU 281107
RWRCO

WEATHER ROUNDUP FOR COLORADO
NATIONAL WEATHER SERVICE DENVER/BOULDER CO
500 AM MDT FRI APR 28 2017

NOTE: "FAIR" INDICATES FEW OR NO CLOUDS BELOW 12000 FEET WITH NO
SIGNIFICANT WEATHER AND/OR OBSTRUCTIONS TO VISIBILITY.

COZ001>005-013-030-031-281200-
...NORTHWEST COLORADO...

CITY           SKY/WX    TMP DP  RH WIND       PRES   REMARKS
CRAIG          CLOUDY    31  23  72 W7        29.75S WCI  24
HAYDEN         FAIR      28  23  80 CALM      29.74S
MEEKER         LGT SNOW  28  25  88 CALM      29.76S FOG
MOUNT WERNER   NOT AVBL
STEAMBOAT SPGS CLOUDY    27  26  94 SW9       29.73S WCI  18
WALDEN           N/A     19  16  86 S5        29.70R WCI  13
$$

COZ006>008-011-281200-
...WEST CENTRAL VALLEYS...

CITY           SKY/WX    TMP DP  RH WIND       PRES   REMARKS
GRAND JUNCTION FAIR      30  17  58 CALM      29.75F
MONTROSE       MOCLDY    29  18  63 S6        29.78S WCI  23
EAGLE          FAIR      25  22  88 E5        29.76S WCI  19
RIFLE          CLOUDY    31  29  92 CALM      29.75S
DELTA          FAIR      39  15  36 W6        29.75S
NUCLA          FAIR      30  12  47 SE5       29.79F WCI  25
$$

COZ017>023-064>068-281200-
...SOUTHWEST COLORADO...

CITY           SKY/WX    TMP DP  RH WIND       PRES   REMARKS
DURANGO        CLOUDY    37  17  44 SW10      29.73F
CORTEZ         CLOUDY    39  20  46 CALM      29.77R
PAGOSA SPRINGS FAIR      29  14  51 CALM      29.75S
TELLURIDE      FAIR      26  13  57 CALM      29.76F
WOLF CREEK PAS CLOUDY    12   7  79 S12       29.79F WCI  -2
$$

COZ009-010-012-014-032>034-037-058>063-281200-
...CENTRAL COLORADO...

CITY           SKY/WX    TMP DP  RH WIND       PRES   REMARKS
ASPEN          CLOUDY    26  20  77 S8        29.71F WCI  18
BUENA VISTA    FAIR      25  12  59 NW7       29.70F WCI  17
COPPER MTN     FAIR      14   9  79 MISG      29.67F
BERTHOUD PASS  CLOUDY     7  -4  61 NW31G39   29.59F WCI -17
COTTONWOOD PAS FAIR      23  12  63 NW9       29.69F WCI  13
GUNNISON       FAIR      26  19  74 N6        29.74F WCI  19
KREMMLING      FAIR      34  21  60 W6        29.73S WCI  29
LEADVILLE      CLOUDY    12   6  77 NE6       29.68F WCI   3
MONARCH PASS   CLOUDY    14  10  85 SW20      29.80F WCI  -3
SALIDA         FAIR      25  20  83 CALM      29.78F
SUNLIGHT       MOCLDY   N/A N/A N/A SW6       29.75S
WILKERSON PASS FAIR      14   5  67 SW16G23   29.67S WCI  -2
$$

COZ069>075-281200-
...SAN LUIS VALLEY/SANGRE DE CRISTO MOUNTAINS...

CITY           SKY/WX    TMP DP  RH WIND       PRES   REMARKS
ALAMOSA        FAIR      21  19  92 E5        29.72F WCI  15
LA VETA PASS   FAIR      21  12  68 S12G21    29.82F WCI   9
SAGUACHE       FAIR      23  12  63 N5        29.74F WCI  17
$$

COZ035-036-038>040-281200-
...NORTHERN COLORADO FRONT RANGE...

CITY           SKY/WX    TMP DP  RH WIND       PRES   REMARKS
DENVER INTL AP FAIR      37  17  44 W6        29.61S
DMNS CITY PARK   N/A     41  12  30 N5        29.62S
AURORA         PTCLDY    32  17  52 SW9       29.63R WCI  25
FRONT RANGE AP FAIR      32  21  64 SW7       29.63R WCI  26
ERIE MUNI ARPT FAIR      32  30  94 CALM      29.62R
BOULDER MUN AP FAIR      36  19  51 S8        29.60S
CENTENNIAL     FAIR      35  17  47 W6        29.62S WCI  30
BROOMFIELD     FAIR      36  18  48 N8        29.62S
FORT COLLINS   FOG       30  29  96 NE5       29.62R VSB 1/4 WCI  25
LONGMONT       FAIR      36  31  83 CALM      29.63S
$$

COZ041-046-047-076>085-087-088-281200-
...PIKES PEAK/PALMER DIVIDE AND SOUTHERN FOOTHILLS...

CITY           SKY/WX    TMP DP  RH WIND       PRES   REMARKS
COLO. SPRINGS  FAIR      34  23  64 SW3       29.66R
A. F. ACADEMY  FAIR      33   9  36 S3        29.66R
SCHRIEVER AFB  FAIR      32  25  76 CALM      29.66R
ELLICOTT       FAIR     N/A N/A N/A SE6       29.64S
FALCON         FAIR      32  14  48 W7        29.66R WCI  25
FORT CARSON    FAIR      34  28  79 SE7       29.65R WCI  28
LIMON          FAIR      27  27 100 S3        29.63S
MONUMENT HILL  FAIR      27  18  69 SW8       29.66R WCI  18
TRINIDAD       FAIR      33  26  75 W9        29.68R WCI  25
$$

COZ042>045-048>051-090-091-281200-
...NORTHEAST COLORADO...

CITY           SKY/WX    TMP DP  RH WIND       PRES   REMARKS
GREELEY ARPT   FAIR      30  30 100 CALM      29.63S
AKRON          FAIR      34  32  92 W8        29.60S WCI  27
BURLINGTON     NOT AVBL
WRAY           NOT AVBL
STERLING       FAIR      36  36 100 CALM      29.61R
HOLYOKE        CLOUDY    37  36  93 N5        29.63R
FORT MORGAN    FAIR      31  31  97 W6        29.62S WCI  26
$$

COZ086-089-092>099-281200-
...SOUTHEAST COLORADO...

CITY           SKY/WX    TMP DP  RH WIND       PRES   REMARKS
PUEBLO         FAIR      33  29  85 W6        29.65R WCI  28
LA JUNTA       FAIR      37  33  85 SE3       29.65S
LAMAR          FAIR      34  31  88 S3        29.65R
SPRINGFIELD      N/A     37  36  96 SW6       29.67R
$$




USA.gov is the U.S. government's official web portal to all federal, state and local government web resources and services.